This is the latest recevied weather packets stored in our database for station/object WX7FGZ-6. If no packets are shown the sender has not sent any weather packets the latest 1 day(s).
| Time | Temp. | Humidity | Pressure | Rain* | Wind** | Luminosity | Snow |
|---|---|---|---|---|---|---|---|
| 1777994140 | -4.44° C | 91% | 1011.5 hPa | 0 mm | 0.89 m/s, 189° | - | - |
| 1777993840 | -4.44° C | 91% | 1011.6 hPa | 0 mm | 2.68 m/s, 180° | - | - |
| 1777993179 | -4.44° C | 91% | 1011.5 hPa | 0 mm | 1.79 m/s, 183° | - | - |
| 1777992880 | -4.44° C | 91% | 1011.4 hPa | 0 mm | 1.79 m/s, 176° | - | - |
| 1777992801 | -5° C | 91% | 1012.2 hPa | 0 mm | 1.34 m/s, 183° | - | - |
| 1777992580 | -5° C | 91% | 1012.2 hPa | 0 mm | 1.34 m/s, 183° | - | - |
| 1777992280 | -5° C | 91% | 1012.2 hPa | 0 mm | 1.79 m/s, 185° | - | - |
| 1777991979 | -5° C | 91% | 1012.1 hPa | 0 mm | 2.68 m/s, 181° | - | - |
| 1777991680 | -5° C | 91% | 1012.3 hPa | 0 mm | 2.24 m/s, 188° | - | - |
| 1777991080 | -5° C | 91% | 1012 hPa | 0 mm | 2.24 m/s, 188° | - | - |
| 1777990779 | -5° C | 91% | 1011.9 hPa | 0 mm | 2.24 m/s, 189° | - | - |
| 1777990180 | -5° C | 91% | 1011.8 hPa | 0 mm | 1.79 m/s, 177° | - | - |
| 1777989880 | -5° C | 91% | 1011.8 hPa | 0 mm | 3.13 m/s, 183° | - | - |
| 1777989288 | -5° C | 91% | 1011.7 hPa | 0 mm | 2.68 m/s, 177° | - | - |
| 1777988988 | -5° C | 91% | 1011.7 hPa | 0 mm | 1.34 m/s, 166° | - | - |
| 1777988689 | -5° C | 91% | 1011.6 hPa | 0 mm | 0.45 m/s, 172° | - | - |
| 1777988389 | -5° C | 91% | 1011.6 hPa | 0 mm | 2.24 m/s, 177° | - | - |
| 1777988277 | -5° C | 91% | 1011.5 hPa | 0 mm | 2.68 m/s, 169° | - | - |
| 1777988088 | -5° C | 91% | 1011.5 hPa | 0 mm | 2.68 m/s, 169° | - | - |
| 1777987768 | -5° C | 91% | 1011.4 hPa | 0 mm | 1.34 m/s, 178° | - | - |
| 1777987600 | -5° C | 91% | 1011.4 hPa | 0 mm | 1.34 m/s, 178° | - | - |
| 1777987300 | -5° C | 91% | 1011.6 hPa | 0 mm | 1.79 m/s, 171° | - | - |
| 1777987002 | -5° C | 91% | 1011.6 hPa | 0 mm | 1.79 m/s, 176° | - | - |
| 1777986894 | -5° C | 91% | 1011.4 hPa | 0 mm | 2.68 m/s, 175° | - | - |
| 1777986831 | -5° C | 91% | 1011.4 hPa | 0 mm | 2.68 m/s, 175° | - | - |
* Rain latest hour (hover to see other rain measurements)
** Current wind speed in m/s (hover to see current wind gust speed)